(2017 HV2) |
Classification: Apollo [NEO] SPK-ID: 3774067 |
[ hide orbit diagram ]
For accurate long-term ephemerides, please instead use our Horizons system.This orbit viewer was implemented using two-body methods, and hence should not be used for determining accurate long-term trajectories (over several years or decades) or planetary encounter circumstances.
Orbital Elements at Epoch 2459000.5 (2020-May-31.0) TDB
Reference: JPL 3 (heliocentric ecliptic J2000)
Element | Value | Uncertainty (1-sigma) | Units |
e | .3358512873909303 | 5.5052e-05 | |
a | 1.416006765954879 | 0.00010152 | au |
q | .9404390706546649 | 1.053e-05 | au |
i | 10.20480925649902 | 0.0019475 | deg |
node | 33.44744860734898 | 1.6634e-05 | deg |
peri | 222.3776899476347 | 0.00087516 | deg |
M | 282.0910528420993 | 0.06887 | deg |
tp | 2459133.692955022885 (2020-Oct-11.19295502) | 0.13207 | TDB |
period | 615.4551634622626 1.69 | 0.06619 0.0001812 | d yr |
n | .5849329429211521 | 6.2908e-05 | deg/d |
Q | 1.891574461255092 | 0.00013562 | au |
|
| | Orbit Determination Parameters
Additional Information
|
[ show covariance matrix ]
Physical Parameter Table
Parameter |
Symbol |
Value |
Units |
Sigma |
Reference |
Notes |
absolute magnitude |
H |
28.9 |
|
n/a |
MPO438036 |
|
|
[ show close-approach data ]
|